contact:dominique.lefevre@mio.osupytheas.fr, maurice.libes@osupytheas.fr, didier.mallarino@osupytheas.fr
Project:EMSO http://www.emso-fr.org/EMSO-France
Depth: 2436.0 m
Title:EMSO Ligure Ouest : Data MII capteur AQUADOPP
Date,Latitude,Longitude,X_East,Y_North,Z_Up,Amplitude_X,Amplitude_Y,Amplitude_Z,Batterie,SoundSpeed,Heading,Pitch,Roll,Pressure,TIS,Speed,Direction
, degrees North, degrees East, m.s-1, m.s-1,m.s-1, 1, 1, 1, Volt, m.s-1, degree, degree, degree, dbar, degree_C, m.s-1, degree
2022-02-04T00:04:03,42.805,6.029,-0.056,0.019,-0.017,102.0,101.0,100.0,13.4,1505.2,323.9,-0.8,1.8,2470.388,13.28,0.059,288.7
2022-02-04T00:07:03,42.805,6.029,-0.038,0.033,0.019,102.0,101.0,100.0,13.4,1505.2,330.9,-0.7,1.8,2470.355,13.28,0.05,311.0
2022-02-04T00:10:03,42.805,6.029,-0.06,0.032,0.015,102.0,101.0,100.0,13.4,1505.2,329.2,-0.8,1.8,2470.367,13.28,0.067,298.1
2022-02-04T00:13:03,42.805,6.029,-0.064,0.007,-0.014,101.0,101.0,101.0,13.4,1505.2,329.2,-0.7,1.8,2470.38,13.28,0.064,276.2
2022-02-04T00:16:03,42.805,6.029,-0.057,0.002,-0.043,101.0,102.0,101.0,13.3,1505.2,327.2,-0.8,1.8,2470.396,13.28,0.057,272.0
2022-02-04T00:19:03,42.805,6.029,-0.045,0.008,-0.003,103.0,101.0,102.0,13.4,1505.2,329.1,-0.8,1.9,2470.399,13.28,0.045,280.1
2022-02-04T00:22:03,42.805,6.029,-0.062,0.014,-0.03,102.0,102.0,100.0,13.4,1505.2,330.8,-0.8,1.8,2470.378,13.28,0.063,282.7
2022-02-04T00:25:03,42.805,6.029,-0.072,0.025,-0.03,101.0,101.0,100.0,13.4,1505.2,327.0,-0.8,1.8,2470.367,13.28,0.076,289.1
2022-02-04T00:28:03,42.805,6.029,-0.08,0.031,0.0,102.0,102.0,100.0,13.3,1505.2,326.7,-0.8,1.8,2470.367,13.28,0.085,291.2
2022-02-04T00:31:03,42.805,6.029,-0.087,0.038,-0.052,101.0,100.0,101.0,13.4,1505.2,325.9,-0.8,1.8,2470.361,13.28,0.094,293.6
2022-02-04T00:34:03,42.805,6.029,-0.079,0.001,-0.023,102.0,101.0,100.0,13.4,1505.2,323.8,-0.7,1.8,2470.407,13.28,0.079,270.7
2022-02-04T00:37:03,42.805,6.029,-0.066,0.018,-0.031,102.0,102.0,99.0,13.4,1505.2,329.9,-0.7,1.8,2470.368,13.28,0.068,285.3
2022-02-04T00:40:03,42.805,6.029,-0.073,0.015,-0.018,102.0,102.0,101.0,13.3,1505.2,326.4,-0.8,1.8,2470.408,13.28,0.074,281.6
2022-02-04T00:43:03,42.805,6.029,-0.082,0.035,-0.032,101.0,102.0,100.0,13.4,1505.2,328.3,-0.8,1.8,2470.409,13.28,0.089,293.1
2022-02-04T00:46:03,42.805,6.029,-0.056,0.01,-0.001,103.0,100.0,101.0,13.3,1505.2,323.6,-0.7,1.8,2470.395,13.28,0.056,280.1
2022-02-04T00:49:03,42.805,6.029,-0.069,0.048,-0.013,103.0,101.0,100.0,13.4,1505.2,329.4,-0.8,1.9,2470.406,13.28,0.084,304.8
2022-02-04T00:52:03,42.805,6.029,-0.055,0.028,0.004,102.0,102.0,100.0,13.4,1505.2,329.6,-0.8,1.8,2470.409,13.28,0.061,297.0
2022-02-04T00:55:03,42.805,6.029,-0.077,0.039,0.02,102.0,101.0,101.0,13.4,1505.2,326.1,-0.7,1.9,2470.407,13.28,0.086,296.9
2022-02-04T00:58:03,42.805,6.029,-0.069,0.008,-0.028,102.0,101.0,102.0,13.4,1505.2,324.0,-0.7,1.8,2470.395,13.28,0.069,276.6
2022-02-04T01:04:03,42.805,6.029,-0.102,0.021,-0.048,104.0,103.0,102.0,13.4,1505.2,327.8,-0.8,1.8,2470.498,13.28,0.104,281.6
2022-02-04T01:07:03,42.805,6.029,-0.058,0.022,-0.036,102.0,102.0,101.0,13.4,1505.2,328.8,-0.8,1.8,2470.461,13.28,0.062,290.8
2022-02-04T01:10:03,42.805,6.029,-0.056,0.017,-0.013,104.0,103.0,101.0,13.3,1505.2,328.7,-0.8,1.8,2470.428,13.28,0.058,286.9
2022-02-04T01:13:03,42.805,6.029,-0.069,0.023,0.003,101.0,103.0,102.0,13.3,1505.2,328.5,-0.8,1.8,2470.45,13.28,0.072,288.4
2022-02-04T01:16:03,42.805,6.029,-0.06,0.023,-0.01,104.0,101.0,102.0,13.4,1505.2,328.7,-0.8,1.8,2470.451,13.28,0.064,291.0
2022-02-04T01:19:03,42.805,6.029,-0.07,0.03,-0.021,102.0,104.0,100.0,13.4,1505.2,325.5,-0.7,1.8,2470.421,13.28,0.076,293.2
2022-02-04T01:22:03,42.805,6.029,-0.059,0.034,0.002,102.0,102.0,101.0,13.4,1505.2,329.0,-0.8,1.8,2470.453,13.28,0.068,300.0
2022-02-04T01:25:03,42.805,6.029,-0.083,0.031,0.0,104.0,100.0,101.0,13.4,1505.2,327.4,-0.8,1.9,2470.819,13.28,0.088,290.5
2022-02-04T01:28:03,42.805,6.029,-0.061,0.024,-0.024,103.0,102.0,101.0,13.3,1505.2,326.6,-0.8,1.8,2471.196,13.28,0.065,291.5
2022-02-04T01:31:03,42.805,6.029,-0.05,0.022,0.006,102.0,105.0,101.0,13.3,1505.2,325.9,-0.8,1.8,2471.084,13.28,0.054,293.7
2022-02-04T01:34:03,42.805,6.029,-0.054,0.038,0.013,101.0,103.0,100.0,13.3,1505.2,327.8,-0.8,1.8,2470.995,13.28,0.066,305.1
2022-02-04T01:37:03,42.805,6.029,-0.074,0.022,-0.026,103.0,102.0,100.0,13.4,1505.2,328.5,-0.8,1.8,2470.699,13.28,0.077,286.6
2022-02-04T01:40:03,42.805,6.029,-0.068,0.036,-0.011,103.0,102.0,101.0,13.4,1505.2,328.8,-0.7,1.8,2470.417,13.28,0.076,297.9
2022-02-04T01:43:03,42.805,6.029,-0.052,0.007,-0.025,103.0,102.0,100.0,13.4,1505.2,327.0,-0.8,1.8,2470.258,13.28,0.052,277.7
2022-02-04T01:46:03,42.805,6.029,-0.096,0.045,0.01,103.0,103.0,101.0,13.3,1505.2,324.4,-0.7,1.8,2470.232,13.28,0.106,295.1
2022-02-04T01:49:03,42.805,6.029,-0.056,0.043,0.009,102.0,105.0,100.0,13.4,1505.2,329.5,-0.7,1.8,2470.277,13.28,0.07,307.5
2022-02-04T01:52:03,42.805,6.029,-0.062,0.023,-0.017,102.0,104.0,101.0,13.4,1505.2,325.7,-0.7,1.8,2470.27,13.28,0.066,290.3
2022-02-04T01:55:03,42.805,6.029,-0.067,0.035,-0.024,102.0,103.0,101.0,13.4,1505.2,328.0,-0.7,1.8,2470.318,13.28,0.075,297.6
2022-02-04T01:58:03,42.805,6.029,-0.082,0.047,-0.007,103.0,101.0,101.0,13.4,1505.2,331.1,-0.8,1.8,2470.566,13.28,0.094,299.8
2022-02-04T02:04:03,42.805,6.029,-0.072,0.013,-0.029,101.0,102.0,101.0,13.4,1505.2,326.2,-0.8,1.9,2470.811,13.28,0.073,280.2
2022-02-04T02:07:03,42.805,6.029,-0.072,0.031,-0.001,102.0,101.0,101.0,13.4,1505.2,327.8,-0.8,1.8,2471.262,13.28,0.078,293.3
2022-02-04T02:10:03,42.805,6.029,-0.053,0.041,-0.01,101.0,101.0,101.0,13.3,1505.2,325.1,-0.7,1.8,2471.336,13.28,0.067,307.7
2022-02-04T02:13:03,42.805,6.029,-0.075,0.044,-0.011,101.0,102.0,101.0,13.4,1505.2,327.4,-0.8,1.8,2471.492,13.28,0.086,300.4
2022-02-04T02:16:03,42.805,6.029,-0.07,0.008,-0.029,101.0,102.0,100.0,13.4,1505.2,324.2,-0.8,1.8,2471.202,13.28,0.07,276.5
2022-02-04T02:19:03,42.805,6.029,-0.066,0.026,0.016,101.0,102.0,101.0,13.4,1505.2,330.8,-0.8,1.8,2471.231,13.28,0.07,291.5
2022-02-04T02:22:03,42.805,6.029,-0.057,0.033,-0.001,102.0,100.0,99.0,13.4,1505.2,327.2,-0.7,1.8,2471.159,13.28,0.065,300.1
2022-02-04T02:25:03,42.805,6.029,-0.076,0.02,-0.024,100.0,102.0,99.0,13.4,1505.2,330.3,-0.7,1.8,2471.319,13.28,0.078,284.7
2022-02-04T02:28:03,42.805,6.029,-0.075,0.032,-0.025,101.0,101.0,100.0,13.3,1505.2,326.3,-0.7,1.8,2471.353,13.28,0.081,293.1
2022-02-04T02:31:03,42.805,6.029,-0.076,0.016,-0.018,100.0,102.0,100.0,13.4,1505.2,323.8,-0.7,1.9,2471.358,13.28,0.077,281.9
2022-02-04T02:34:03,42.805,6.029,-0.037,0.015,-0.029,102.0,100.0,100.0,13.3,1505.2,328.3,-0.7,1.8,2471.3,13.28,0.039,292.1
2022-02-04T02:37:03,42.805,6.029,-0.061,0.007,-0.025,100.0,100.0,100.0,13.3,1505.2,327.4,-0.7,1.9,2471.097,13.28,0.061,276.5
2022-02-04T02:40:03,42.805,6.029,-0.074,0.023,-0.044,101.0,100.0,100.0,13.4,1505.2,327.0,-0.7,1.8,2470.553,13.28,0.077,287.3
2022-02-04T02:43:03,42.805,6.029,-0.087,0.028,-0.033,101.0,100.0,100.0,13.3,1505.2,326.3,-0.8,1.8,2471.066,13.28,0.091,287.8
2022-02-04T02:46:03,42.805,6.029,-0.048,0.037,0.032,101.0,100.0,101.0,13.4,1505.2,328.2,-0.8,1.8,2471.35,13.28,0.06,307.6
2022-02-04T02:49:03,42.805,6.029,-0.069,0.021,-0.029,100.0,101.0,100.0,13.4,1505.2,328.3,-0.8,1.8,2471.335,13.28,0.072,286.9
2022-02-04T02:52:03,42.805,6.029,-0.072,0.025,-0.016,102.0,101.0,99.0,13.4,1505.2,324.8,-0.7,1.8,2471.644,13.28,0.076,289.1
2022-02-04T02:55:03,42.805,6.029,-0.057,0.036,-0.003,102.0,101.0,100.0,13.4,1505.2,327.0,-0.8,1.8,2471.601,13.28,0.067,302.3
2022-02-04T02:58:03,42.805,6.029,-0.045,0.005,-0.021,102.0,101.0,100.0,13.4,1505.2,330.3,-0.7,1.8,2471.513,13.28,0.045,276.3
2022-02-04T03:04:03,42.805,6.029,-0.045,0.022,-0.013,103.0,102.0,100.0,13.3,1505.2,327.7,-0.8,1.8,2471.27,13.28,0.05,296.1
2022-02-04T03:07:03,42.805,6.029,-0.065,0.037,-0.005,100.0,101.0,100.0,13.4,1505.2,326.7,-0.8,1.8,2471.171,13.28,0.074,299.7
2022-02-04T03:10:03,42.805,6.029,-0.054,0.01,-0.044,100.0,101.0,100.0,13.4,1505.2,331.8,-0.8,1.8,2471.107,13.28,0.054,280.5
2022-02-04T03:13:03,42.805,6.029,-0.042,0.008,-0.026,101.0,100.0,100.0,13.4,1505.2,330.7,-0.8,1.8,2470.995,13.28,0.042,280.8
2022-02-04T03:16:03,42.805,6.029,-0.039,0.018,0.002,101.0,100.0,100.0,13.4,1505.2,328.9,-0.8,1.8,2470.909,13.28,0.042,294.8
2022-02-04T03:19:03,42.805,6.029,-0.047,0.022,-0.045,101.0,100.0,100.0,13.3,1505.2,329.7,-0.7,1.8,2471.011,13.28,0.051,295.1
2022-02-04T03:22:03,42.805,6.029,-0.071,0.0,-0.06,101.0,99.0,99.0,13.3,1505.2,323.9,-0.7,1.8,2471.02,13.28,0.07,270.0
2022-02-04T03:25:03,42.805,6.029,-0.06,0.025,-0.008,100.0,100.0,99.0,13.3,1505.2,325.7,-0.8,1.9,2471.071,13.28,0.064,292.6
2022-02-04T03:28:03,42.805,6.029,-0.083,0.026,-0.005,101.0,100.0,100.0,13.4,1505.2,326.5,-0.7,1.8,2471.032,13.28,0.086,287.4
2022-02-04T03:31:03,42.805,6.029,-0.046,0.024,0.006,100.0,102.0,100.0,13.4,1505.2,325.7,-0.7,1.8,2470.92,13.28,0.051,297.6
2022-02-04T03:34:03,42.805,6.029,-0.053,0.018,-0.04,102.0,100.0,99.0,13.4,1505.2,327.5,-0.8,1.8,2470.795,13.28,0.055,288.8
2022-02-04T03:37:03,42.805,6.029,-0.058,0.012,-0.008,102.0,99.0,100.0,13.4,1505.2,327.9,-0.8,1.8,2470.821,13.28,0.059,281.7
2022-02-04T03:40:03,42.805,6.029,-0.036,0.021,-0.041,98.0,101.0,100.0,13.3,1505.2,323.4,-0.8,1.8,2471.004,13.28,0.041,300.3
2022-02-04T03:43:03,42.805,6.029,-0.046,0.024,-0.052,99.0,101.0,100.0,13.3,1505.2,330.1,-0.8,1.8,2470.875,13.28,0.051,297.6
2022-02-04T03:46:03,42.805,6.029,-0.069,0.024,-0.047,102.0,99.0,99.0,13.4,1505.2,327.3,-0.7,1.9,2470.776,13.28,0.073,289.2
2022-02-04T03:49:03,42.805,6.029,-0.054,0.001,-0.05,101.0,101.0,99.0,13.4,1505.2,327.4,-0.7,1.8,2470.703,13.28,0.054,271.1
2022-02-04T03:52:03,42.805,6.029,-0.046,0.007,-0.058,101.0,100.0,100.0,13.4,1505.2,324.0,-0.7,1.8,2470.733,13.28,0.046,278.7
2022-02-04T03:55:03,42.805,6.029,-0.064,0.004,-0.054,101.0,100.0,100.0,13.4,1505.2,329.3,-0.8,1.8,2470.768,13.28,0.064,273.6
2022-02-04T03:58:03,42.805,6.029,-0.06,0.004,-0.048,98.0,100.0,101.0,13.4,1505.2,326.8,-0.7,1.8,2470.699,13.28,0.06,273.8
2022-02-04T04:04:03,42.805,6.029,-0.058,0.027,-0.01,100.0,101.0,99.0,13.3,1505.2,329.2,-0.8,1.8,2470.772,13.28,0.063,295.0
2022-02-04T04:07:03,42.805,6.029,-0.057,0.024,-0.038,101.0,100.0,100.0,13.4,1505.2,329.4,-0.8,1.8,2470.728,13.28,0.061,292.8
2022-02-04T04:10:03,42.805,6.029,-0.065,0.011,-0.037,101.0,102.0,98.0,13.4,1505.2,328.1,-0.7,1.8,2470.705,13.28,0.065,279.6
2022-02-04T04:13:03,42.805,6.029,-0.056,0.018,0.0,101.0,101.0,99.0,13.4,1505.2,327.5,-0.8,1.8,2470.678,13.28,0.058,287.8
2022-02-04T04:16:03,42.805,6.029,-0.056,0.014,-0.024,100.0,100.0,100.0,13.4,1505.2,327.9,-0.7,1.8,2470.678,13.28,0.057,284.0
2022-02-04T04:19:03,42.805,6.029,-0.061,0.008,-0.021,99.0,100.0,99.0,13.3,1505.2,323.3,-0.7,1.8,2470.553,13.28,0.061,277.5
2022-02-04T04:22:03,42.805,6.029,-0.064,0.007,-0.031,99.0,99.0,101.0,13.3,1505.2,330.8,-0.8,1.8,2470.474,13.28,0.064,276.2
2022-02-04T04:25:03,42.805,6.029,-0.049,0.007,-0.043,99.0,103.0,98.0,13.4,1505.2,328.6,-0.8,1.8,2470.362,13.28,0.049,278.1
2022-02-04T04:28:03,42.805,6.029,-0.056,0.005,-0.042,99.0,102.0,101.0,13.4,1505.2,325.8,-0.8,1.8,2470.282,13.28,0.056,275.1
2022-02-04T04:31:03,42.805,6.029,-0.046,-0.009,-0.031,102.0,100.0,99.0,13.4,1505.2,328.2,-0.7,1.8,2470.324,13.28,0.046,258.9
2022-02-04T04:34:03,42.805,6.029,-0.061,-0.001,-0.022,99.0,102.0,100.0,13.4,1505.2,330.9,-0.8,1.8,2471.171,13.28,0.061,269.1
2022-02-04T04:37:03,42.805,6.029,-0.07,-0.008,-0.046,101.0,100.0,101.0,13.4,1505.2,327.9,-0.8,1.8,2471.401,13.28,0.07,263.5
2022-02-04T04:40:03,42.805,6.029,-0.062,-0.014,-0.006,100.0,102.0,100.0,13.4,1505.2,331.0,-0.8,1.8,2471.501,13.28,0.063,257.3
2022-02-04T04:43:03,42.805,6.029,-0.088,0.008,-0.031,100.0,101.0,101.0,13.4,1505.2,325.2,-0.7,1.8,2471.044,13.28,0.088,275.2
2022-02-04T04:46:03,42.805,6.029,-0.041,0.001,-0.007,102.0,101.0,101.0,13.4,1505.2,330.0,-0.8,1.8,2470.355,13.28,0.041,271.4
2022-02-04T04:49:03,42.805,6.029,-0.064,0.016,0.001,103.0,101.0,100.0,13.4,1505.2,328.9,-0.8,1.8,2469.999,13.28,0.065,284.0
2022-02-04T04:52:03,42.805,6.029,-0.057,-0.015,-0.047,101.0,101.0,101.0,13.4,1505.2,329.1,-0.8,1.8,2469.67,13.28,0.058,255.3
2022-02-04T04:55:03,42.805,6.029,-0.08,0.001,-0.037,102.0,101.0,101.0,13.4,1505.2,326.0,-0.7,1.8,2469.544,13.28,0.08,270.7
2022-02-04T04:58:03,42.805,6.029,-0.054,0.005,0.01,102.0,101.0,100.0,13.3,1505.2,330.5,-0.7,1.8,2469.588,13.28,0.054,275.3
2022-02-04T05:04:03,42.805,6.029,-0.07,0.013,-0.021,102.0,101.0,102.0,13.4,1505.2,329.0,-0.8,1.8,2469.676,13.28,0.071,280.5
2022-02-04T05:07:03,42.805,6.029,-0.056,0.007,-0.011,101.0,102.0,101.0,13.4,1505.2,326.3,-0.8,1.8,2469.778,13.28,0.056,277.1
2022-02-04T05:10:03,42.805,6.029,-0.077,0.007,-0.05,102.0,102.0,101.0,13.4,1505.2,325.8,-0.8,1.8,2470.243,13.28,0.077,275.2
2022-02-04T05:13:03,42.805,6.029,-0.067,0.01,-0.02,102.0,100.0,101.0,13.4,1505.2,329.0,-0.7,1.8,2470.154,13.28,0.067,278.5
2022-02-04T05:16:03,42.805,6.029,-0.063,-0.026,-0.064,101.0,103.0,101.0,13.3,1505.2,327.9,-0.8,1.8,2470.03,13.28,0.068,247.6
2022-02-04T05:19:03,42.805,6.029,-0.047,0.0,-0.019,101.0,102.0,102.0,13.4,1505.2,327.7,-0.7,1.8,2469.694,13.28,0.047,270.0
2022-02-04T05:22:03,42.805,6.029,-0.063,0.007,-0.017,102.0,102.0,101.0,13.4,1505.2,327.6,-0.8,1.8,2469.679,13.28,0.063,276.3
2022-02-04T05:25:03,42.805,6.029,-0.063,0.011,-0.019,102.0,103.0,100.0,13.4,1505.2,327.2,-0.8,1.8,2469.74,13.28,0.063,279.9
2022-02-04T05:28:03,42.805,6.029,-0.101,-0.006,-0.055,102.0,101.0,101.0,13.3,1505.2,323.8,-0.7,1.8,2469.711,13.28,0.101,266.6
2022-02-04T05:31:03,42.805,6.029,-0.066,0.008,-0.035,103.0,102.0,100.0,13.3,1505.2,327.4,-0.8,1.8,2469.74,13.28,0.066,276.9
2022-02-04T05:34:03,42.805,6.029,-0.053,0.013,-0.015,103.0,102.0,100.0,13.4,1505.2,331.1,-0.8,1.8,2469.796,13.28,0.054,283.8
2022-02-04T05:37:03,42.805,6.029,-0.053,0.028,0.015,102.0,103.0,99.0,13.4,1505.2,327.8,-0.7,1.8,2469.789,13.28,0.059,297.9
2022-02-04T05:40:03,42.805,6.029,-0.044,-0.023,-0.064,102.0,102.0,101.0,13.3,1505.2,323.6,-0.7,1.8,2469.763,13.28,0.049,242.4
2022-02-04T05:43:03,42.805,6.029,-0.051,0.006,-0.022,101.0,102.0,101.0,13.4,1505.2,328.8,-0.8,1.8,2469.793,13.28,0.051,276.7
2022-02-04T05:46:03,42.805,6.029,-0.057,0.009,-0.026,102.0,101.0,102.0,13.3,1505.2,331.3,-0.7,1.8,2469.8,13.28,0.057,279.0
2022-02-04T05:49:03,42.805,6.029,-0.071,0.025,-0.019,103.0,101.0,101.0,13.3,1505.2,325.3,-0.7,1.8,2469.992,13.28,0.075,289.4
2022-02-04T05:52:03,42.805,6.029,-0.051,0.004,-0.033,102.0,102.0,100.0,13.4,1505.2,326.4,-0.8,1.8,2470.54,13.28,0.051,274.5
2022-02-04T05:55:03,42.805,6.029,-0.063,0.021,-0.034,102.0,101.0,101.0,13.4,1505.2,327.3,-0.8,1.8,2470.872,13.28,0.066,288.4
2022-02-04T05:58:03,42.805,6.029,-0.053,0.021,0.027,100.0,102.0,101.0,13.4,1505.2,323.2,-0.8,1.8,2470.817,13.28,0.057,291.6
2022-02-04T06:04:03,42.805,6.029,-0.06,0.012,-0.007,101.0,101.0,101.0,13.4,1505.2,326.3,-0.8,1.8,2471.165,13.28,0.061,281.3
2022-02-04T06:07:03,42.805,6.029,-0.046,0.002,-0.02,101.0,102.0,101.0,13.4,1505.2,323.6,-0.8,1.8,2471.442,13.28,0.046,272.5
2022-02-04T06:10:03,42.805,6.029,-0.06,0.009,-0.027,100.0,102.0,101.0,13.4,1505.2,328.3,-0.7,1.8,2470.726,13.28,0.06,278.5
2022-02-04T06:13:03,42.805,6.029,-0.055,0.043,-0.022,101.0,101.0,100.0,13.4,1505.2,329.1,-0.8,1.8,2470.501,13.28,0.069,308.0
2022-02-04T06:16:03,42.805,6.029,-0.09,0.012,-0.053,101.0,101.0,101.0,13.4,1505.2,325.2,-0.8,1.8,2471.542,13.28,0.09,277.6
2022-02-04T06:19:03,42.805,6.029,-0.064,0.017,-0.042,102.0,103.0,101.0,13.4,1505.2,326.4,-0.8,1.8,2471.803,13.28,0.066,284.9
2022-02-04T06:22:03,42.805,6.029,-0.057,0.025,-0.014,102.0,101.0,100.0,13.4,1505.2,323.2,-0.7,1.8,2471.403,13.28,0.062,293.7
2022-02-04T06:25:03,42.805,6.029,-0.079,0.048,0.0,102.0,101.0,101.0,13.3,1505.2,329.2,-0.7,1.8,2471.751,13.28,0.092,301.3
2022-02-04T06:28:03,42.805,6.029,-0.039,0.027,-0.012,102.0,101.0,100.0,13.4,1505.2,330.7,-0.8,1.8,2471.952,13.28,0.047,304.7
2022-02-04T06:31:03,42.805,6.029,-0.068,0.02,-0.013,102.0,102.0,100.0,13.4,1505.2,330.8,-0.8,1.8,2471.937,13.28,0.07,286.4
2022-02-04T06:34:03,42.805,6.029,-0.075,0.023,-0.04,102.0,102.0,99.0,13.4,1505.2,327.4,-0.8,1.8,2471.673,13.28,0.078,287.0
2022-02-04T06:37:03,42.805,6.029,-0.093,0.025,-0.042,100.0,102.0,101.0,13.4,1505.2,329.4,-0.8,1.8,2471.766,13.28,0.096,285.0
2022-02-04T06:40:03,42.805,6.029,-0.065,0.016,-0.042,102.0,102.0,100.0,13.4,1505.2,323.4,-0.8,1.8,2471.623,13.28,0.066,283.8
2022-02-04T06:43:03,42.805,6.029,-0.066,0.004,-0.057,102.0,102.0,100.0,13.3,1505.2,329.5,-0.8,1.8,2471.407,13.28,0.066,273.5
2022-02-04T06:46:03,42.805,6.029,-0.089,0.027,-0.03,102.0,101.0,102.0,13.4,1505.2,327.8,-0.8,1.8,2471.307,13.28,0.093,286.9
2022-02-04T06:49:03,42.805,6.029,-0.051,0.006,-0.02,102.0,103.0,101.0,13.3,1505.2,323.2,-0.7,1.8,2471.039,13.28,0.051,276.7
2022-02-04T06:52:03,42.805,6.029,-0.053,0.02,-0.012,102.0,103.0,100.0,13.4,1505.2,326.6,-0.8,1.8,2470.834,13.28,0.056,290.7
2022-02-04T06:55:03,42.805,6.029,-0.07,0.035,-0.013,101.0,102.0,101.0,13.3,1505.2,325.5,-0.7,1.8,2470.838,13.28,0.078,296.6
2022-02-04T06:58:03,42.805,6.029,-0.078,0.009,-0.031,102.0,100.0,100.0,13.4,1505.2,326.6,-0.8,1.8,2470.806,13.28,0.078,276.6
2022-02-04T07:04:03,42.805,6.029,-0.087,0.019,-0.02,103.0,102.0,102.0,13.3,1505.2,323.6,-0.7,1.8,2470.596,13.28,0.089,282.3
2022-02-04T07:07:03,42.805,6.029,-0.059,0.029,-0.023,102.0,101.0,100.0,13.3,1505.2,326.2,-0.8,1.8,2470.504,13.28,0.065,296.2
2022-02-04T07:10:03,42.805,6.029,-0.049,0.031,-0.036,101.0,102.0,100.0,13.4,1505.2,331.1,-0.8,1.8,2470.492,13.28,0.057,302.3
2022-02-04T07:13:03,42.805,6.029,-0.071,0.028,0.0,102.0,101.0,100.0,13.3,1505.2,324.0,-0.8,1.8,2470.41,13.28,0.076,291.5
2022-02-04T07:16:03,42.805,6.029,-0.076,0.015,-0.013,101.0,102.0,100.0,13.4,1505.2,323.1,-0.8,1.8,2470.427,13.28,0.077,281.2
2022-02-04T07:19:03,42.805,6.029,-0.079,0.026,-0.01,101.0,104.0,100.0,13.3,1505.2,328.6,-0.7,1.8,2470.487,13.28,0.083,288.2
2022-02-04T07:22:03,42.805,6.029,-0.055,0.016,-0.025,101.0,101.0,101.0,13.4,1505.2,326.1,-0.7,1.8,2470.474,13.28,0.057,286.2
2022-02-04T07:25:03,42.805,6.029,-0.058,0.001,-0.028,103.0,102.0,100.0,13.4,1505.2,328.4,-0.8,1.8,2470.474,13.28,0.058,271.0
2022-02-04T07:28:03,42.805,6.029,-0.057,0.021,-0.041,103.0,104.0,100.0,13.4,1505.2,331.7,-0.7,1.9,2470.392,13.28,0.06,290.2
2022-02-04T07:31:03,42.805,6.029,-0.055,0.038,-0.013,102.0,102.0,101.0,13.4,1505.2,329.9,-0.8,1.8,2470.274,13.28,0.066,304.6
2022-02-04T07:34:03,42.805,6.029,-0.053,0.028,-0.002,103.0,101.0,102.0,13.4,1505.2,325.6,-0.8,1.8,2470.344,13.28,0.059,297.9
2022-02-04T07:37:03,42.805,6.029,-0.054,0.025,-0.017,102.0,100.0,100.0,13.4,1505.2,324.3,-0.7,1.8,2470.299,13.28,0.059,294.8
2022-02-04T07:40:03,42.805,6.029,-0.061,0.02,-0.028,100.0,103.0,101.0,13.4,1505.2,331.5,-0.7,1.8,2470.286,13.28,0.064,288.1
2022-02-04T07:43:03,42.805,6.029,-0.061,0.016,-0.046,102.0,102.0,100.0,13.4,1505.2,328.5,-0.7,1.8,2470.23,13.28,0.063,284.7
2022-02-04T07:46:03,42.805,6.029,-0.056,0.025,-0.034,103.0,101.0,100.0,13.4,1505.2,328.7,-0.7,1.8,2470.176,13.28,0.061,294.1
2022-02-04T07:49:03,42.805,6.029,-0.073,0.0,-0.057,102.0,101.0,100.0,13.4,1505.2,326.5,-0.8,1.8,2470.073,13.28,0.072,270.0
2022-02-04T07:52:03,42.805,6.029,-0.071,0.0,-0.052,102.0,102.0,101.0,13.4,1505.2,323.3,-0.8,1.8,2470.076,13.28,0.07,270.0
2022-02-04T07:55:03,42.805,6.029,-0.077,0.002,-0.047,102.0,103.0,100.0,13.4,1505.2,326.2,-0.8,1.8,2470.03,13.28,0.077,271.5
2022-02-04T07:58:03,42.805,6.029,-0.07,0.011,-0.025,101.0,103.0,101.0,13.3,1505.2,327.4,-0.7,1.8,2469.982,13.28,0.07,278.9
2022-02-04T08:04:03,42.805,6.029,-0.043,0.012,-0.031,102.0,103.0,100.0,13.4,1505.2,329.8,-0.7,1.8,2470.076,13.28,0.044,285.6
2022-02-04T08:07:03,42.805,6.029,-0.067,0.015,-0.041,102.0,101.0,101.0,13.3,1505.2,330.5,-0.8,1.8,2470.049,13.28,0.068,282.6
2022-02-04T08:10:03,42.805,6.029,-0.047,0.021,-0.015,102.0,102.0,101.0,13.4,1505.2,328.0,-0.8,1.8,2470.054,13.28,0.051,294.1
2022-02-04T08:13:03,42.805,6.029,-0.064,0.023,-0.034,102.0,101.0,100.0,13.3,1505.2,331.8,-0.7,1.8,2470.101,13.28,0.068,289.8
2022-02-04T08:16:03,42.805,6.029,-0.058,0.0,-0.05,102.0,102.0,99.0,13.4,1505.2,324.6,-0.7,1.8,2470.119,13.28,0.057,270.0
2022-02-04T08:19:03,42.805,6.029,-0.068,0.021,0.005,102.0,101.0,100.0,13.3,1505.2,323.5,-0.8,1.8,2470.076,13.28,0.071,287.2
2022-02-04T08:22:03,42.805,6.029,-0.052,0.025,-0.021,102.0,101.0,101.0,13.4,1505.2,327.5,-0.8,1.9,2470.06,13.28,0.057,295.7
2022-02-04T08:25:03,42.805,6.029,-0.082,0.028,-0.017,102.0,101.0,100.0,13.4,1505.2,326.8,-0.8,1.8,2469.934,13.28,0.086,288.9
2022-02-04T08:28:03,42.805,6.029,-0.048,0.01,-0.021,102.0,101.0,101.0,13.4,1505.2,326.4,-0.8,1.8,2469.92,13.28,0.049,281.8
2022-02-04T08:31:03,42.805,6.029,-0.047,0.015,-0.038,103.0,101.0,100.0,13.4,1505.2,329.2,-0.8,1.8,2469.88,13.28,0.049,287.7
2022-02-04T08:34:03,42.805,6.029,-0.072,0.005,-0.06,102.0,100.0,101.0,13.4,1505.2,323.4,-0.7,1.8,2469.796,13.28,0.072,274.0
2022-02-04T08:37:03,42.805,6.029,-0.108,0.038,-0.022,102.0,101.0,100.0,13.3,1505.2,326.4,-0.7,1.8,2469.776,13.28,0.114,289.4
2022-02-04T08:40:03,42.805,6.029,-0.055,0.0,-0.068,102.0,101.0,101.0,13.3,1505.2,330.4,-0.7,1.8,2469.701,13.28,0.055,270.0
2022-02-04T08:43:03,42.805,6.029,-0.057,0.0,-0.037,101.0,102.0,100.0,13.4,1505.2,326.8,-0.8,1.8,2469.652,13.28,0.057,270.0
2022-02-04T08:46:03,42.805,6.029,-0.072,0.001,-0.019,102.0,101.0,102.0,13.4,1505.2,324.6,-0.7,1.8,2469.617,13.28,0.072,270.8
2022-02-04T08:49:03,42.805,6.029,-0.069,0.009,-0.04,101.0,103.0,101.0,13.4,1505.2,324.9,-0.7,1.8,2469.601,13.28,0.069,277.4
2022-02-04T08:52:03,42.805,6.029,-0.065,0.006,-0.028,101.0,101.0,100.0,13.3,1505.2,325.9,-0.7,1.8,2469.552,13.28,0.065,275.3
2022-02-04T08:55:03,42.805,6.029,-0.065,0.023,-0.028,102.0,101.0,100.0,13.3,1505.2,327.5,-0.8,1.8,2469.507,13.28,0.068,289.5
2022-02-04T08:58:03,42.805,6.029,-0.093,0.027,-0.007,101.0,102.0,100.0,13.4,1505.2,329.3,-0.8,1.8,2469.442,13.28,0.096,286.2
2022-02-04T09:04:03,42.805,6.029,-0.061,0.017,-0.037,103.0,101.0,100.0,13.3,1505.2,332.0,-0.8,1.8,2469.484,13.28,0.063,285.6
2022-02-04T09:07:03,42.805,6.029,-0.091,0.03,-0.021,101.0,101.0,101.0,13.3,1505.2,329.5,-0.8,1.8,2469.405,13.28,0.095,288.2
2022-02-04T09:10:03,42.805,6.029,-0.083,-0.01,-0.055,103.0,100.0,101.0,13.3,1505.2,330.0,-0.7,1.8,2469.46,13.28,0.083,263.1
2022-02-04T09:13:03,42.805,6.029,-0.061,0.027,-0.027,102.0,102.0,100.0,13.4,1505.2,326.6,-0.7,1.8,2469.533,13.28,0.066,293.9
2022-02-04T09:16:03,42.805,6.029,-0.09,0.011,-0.021,100.0,102.0,101.0,13.4,1505.2,327.2,-0.7,1.8,2469.443,13.28,0.09,277.0
2022-02-04T09:19:03,42.805,6.029,-0.055,0.023,-0.03,103.0,100.0,101.0,13.4,1505.2,326.2,-0.8,1.8,2469.315,13.28,0.059,292.7
2022-02-04T09:22:03,42.805,6.029,-0.082,0.002,-0.033,102.0,100.0,100.0,13.4,1505.2,324.0,-0.8,1.8,2469.301,13.28,0.082,271.4
2022-02-04T09:25:03,42.805,6.029,-0.077,0.034,-0.038,101.0,101.0,100.0,13.3,1505.2,326.7,-0.8,1.8,2469.138,13.28,0.084,293.8
2022-02-04T09:28:03,42.805,6.029,-0.083,0.005,-0.026,101.0,101.0,100.0,13.4,1505.2,323.3,-0.7,1.8,2469.041,13.28,0.083,273.4
2022-02-04T09:31:03,42.805,6.029,-0.054,0.002,-0.026,103.0,99.0,101.0,13.4,1505.2,327.5,-0.8,1.8,2468.994,13.28,0.054,272.1
2022-02-04T09:34:03,42.805,6.029,-0.044,-0.019,-0.026,101.0,103.0,101.0,13.4,1505.2,327.6,-0.7,1.8,2468.966,13.28,0.047,246.6
2022-02-04T09:37:03,42.805,6.029,-0.069,0.014,-0.05,101.0,100.0,103.0,13.3,1505.2,328.2,-0.8,1.8,2468.956,13.28,0.07,281.5
2022-02-04T09:40:03,42.805,6.029,-0.046,0.026,-0.023,102.0,100.0,100.0,13.4,1505.2,331.1,-0.7,1.8,2469.036,13.28,0.052,299.5
2022-02-04T09:43:03,42.805,6.029,-0.079,0.013,-0.046,103.0,102.0,100.0,13.4,1505.2,329.5,-0.7,1.8,2468.966,13.28,0.08,279.3
2022-02-04T09:46:03,42.805,6.029,-0.053,0.02,-0.009,100.0,101.0,100.0,13.3,1505.2,328.1,-0.7,1.8,2468.777,13.28,0.056,290.7
2022-02-04T09:49:03,42.805,6.029,-0.082,0.006,-0.048,101.0,101.0,100.0,13.3,1505.2,331.3,-0.8,1.9,2468.883,13.28,0.082,274.2
2022-02-04T09:52:03,42.805,6.029,-0.075,0.01,-0.017,101.0,101.0,102.0,13.3,1505.2,327.6,-0.8,1.8,2468.906,13.28,0.075,277.6
2022-02-04T09:55:03,42.805,6.029,-0.096,0.01,-0.012,101.0,101.0,101.0,13.4,1505.2,329.8,-0.7,1.8,2469.006,13.28,0.096,275.9